• In Romania
  • List of Countries
  • For 7 days
  • Water Temperature
  • Satellite Maps
  • Weather Map
  • Weather Widgets
  • user-avatar
    Login

    Hourly Weather Gavrilova Polyana

    Today, 21 June, Thursday

    Time Temperature Precipitation Wind Pressure Humidity
    00:00 +14°C° 0 mm 2 mps 748 mmHg 82%
    01:00 +14°C° 0 mm 2 mps 749 mmHg 82%
    02:00 +13°C° 0 mm 2 mps 749 mmHg 82%
    03:00 +12°C° 0 mm 3 mps 749 mmHg 83%
    04:00 +13°C° 0 mm 3 mps 749 mmHg 81%
    05:00 +14°C° 0 mm 4 mps 749 mmHg 79%
    06:00 +15°C° 0 mm 4 mps 749 mmHg 77%
    07:00 +17°C° 0 mm 5 mps 749 mmHg 69%
    08:00 +19°C° 0 mm 6 mps 749 mmHg 62%
    09:00 +20°C° 0 mm 7 mps 749 mmHg 55%
    10:00 +21°C° 0 mm 7 mps 749 mmHg 53%
    11:00 +21°C° 0 mm 7 mps 749 mmHg 51%
    12:00 +22°C° 0 mm 7 mps 749 mmHg 49%
    13:00 +22°C° 0 mm 7 mps 749 mmHg 49%
    14:00 +22°C° 0 mm 7 mps 749 mmHg 50%
    15:00 +22°C° 0 mm 7 mps 749 mmHg 50%
    16:00 +21°C° 0 mm 6 mps 749 mmHg 55%
    17:00 +20°C° 0 mm 6 mps 749 mmHg 61%
    18:00 +19°C° 0 mm 5 mps 749 mmHg 66%
    19:00 +18°C° 0 mm 4 mps 749 mmHg 68%
    20:00 +18°C° 0 mm 4 mps 749 mmHg 70%
    21:00 +17°C° 0 mm 4 mps 749 mmHg 72%
    22:00 +15°C° 0 mm 4 mps 749 mmHg 74%
    23:00 +14°C° 0 mm 4 mps 749 mmHg 76%

    Tomorrow, 22 June, Friday

    Time Temperature Precipitation Wind Pressure Humidity
    00:00 +14°C° 0 mm 4 mps 750 mmHg 78%
    01:00 +13°C° 0 mm 4 mps 750 mmHg 79%
    02:00 +13°C° 0 mm 4 mps 750 mmHg 80%
    03:00 +12°C° 0 mm 4 mps 750 mmHg 81%
    04:00 +13°C° 0 mm 4 mps 751 mmHg 78%
    05:00 +14°C° 0 mm 5 mps 751 mmHg 75%
    06:00 +15°C° 0 mm 5 mps 751 mmHg 73%
    07:00 +16°C° 0 mm 5 mps 751 mmHg 66%
    08:00 +19°C° 0 mm 6 mps 752 mmHg 60%
    09:00 +20°C° 0 mm 6 mps 752 mmHg 54%
    10:00 +21°C° 0 mm 6 mps 752 mmHg 51%
    11:00 +22°C° 0 mm 6 mps 752 mmHg 49%
    12:00 +23°C° 0 mm 6 mps 752 mmHg 47%
    13:00 +23°C° 0 mm 6 mps 752 mmHg 48%
    14:00 +23°C° 0 mm 6 mps 752 mmHg 48%
    15:00 +23°C° 0 mm 6 mps 752 mmHg 49%
    16:00 +23°C° 0 mm 5 mps 752 mmHg 53%
    17:00 +22°C° 0 mm 4 mps 752 mmHg 58%
    18:00 +22°C° 0 mm 3 mps 752 mmHg 63%
    19:00 +20°C° 0 mm 2 mps 753 mmHg 68%
    20:00 +18°C° 0 mm 2 mps 753 mmHg 72%
    21:00 +18°C° 0 mm 1 mps 753 mmHg 77%
    22:00 +16°C° 0 mm 1 mps 753 mmHg 78%
    23:00 +16°C° 0 mm 1 mps 753 mmHg 79%

    Day after tomorrow, 23 June, Saturday

    Time Temperature Precipitation Wind Pressure Humidity
    00:00 +15°C° 0 mm 1 mps 753 mmHg 80%
    01:00 +15°C° 0 mm 1 mps 753 mmHg 82%
    02:00 +15°C° 0 mm 2 mps 754 mmHg 84%
    03:00 +15°C° 0 mm 2 mps 754 mmHg 86%
    04:00 +16°C° 0 mm 2 mps 754 mmHg 84%
    05:00 +18°C° 0 mm 1 mps 754 mmHg 82%
    06:00 +20°C° 0 mm 1 mps 754 mmHg 80%
    07:00 +21°C° 0 mm 2 mps 754 mmHg 76%
    08:00 +23°C° 0 mm 2 mps 754 mmHg 71%
    09:00 +25°C° 0 mm 2 mps 754 mmHg 66%
    10:00 +26°C° 0 mm 2 mps 754 mmHg 63%
    11:00 +27°C° 0 mm 2 mps 754 mmHg 60%
    12:00 +28°C° 0 mm 3 mps 754 mmHg 57%
    13:00 +28°C° 0 mm 3 mps 754 mmHg 56%
    14:00 +28°C° 0 mm 3 mps 753 mmHg 56%
    15:00 +29°C° 0 mm 3 mps 753 mmHg 56%
    16:00 +28°C° 0 mm 2 mps 753 mmHg 59%
    17:00 +28°C° 0 mm 2 mps 753 mmHg 63%
    18:00 +27°C° 0 mm 2 mps 753 mmHg 66%
    19:00 +26°C° 0 mm 1 mps 753 mmHg 71%
    20:00 +24°C° 0 mm 1 mps 753 mmHg 76%
    21:00 +22°C° 0 mm 1 mps 753 mmHg 81%
    22:00 +22°C° 0 mm 1 mps 753 mmHg 81%
    23:00 +21°C° 0 mm 1 mps 753 mmHg 82%

    24 June, Sunday

    Time Temperature Precipitation Wind Pressure Humidity
    00:00 +21°C° 0 mm 1 mps 754 mmHg 83%
    01:00 +20°C° 0 mm 1 mps 754 mmHg 84%
    02:00 +20°C° 0 mm 1 mps 754 mmHg 85%
    03:00 +20°C° 0 mm 1 mps 754 mmHg 86%
    04:00 +21°C° 0 mm 1 mps 754 mmHg 82%
    05:00 +22°C° 0 mm 1 mps 754 mmHg 78%
    06:00 +23°C° 0 mm 1 mps 754 mmHg 75%
    07:00 +25°C° 0 mm 1 mps 754 mmHg 70%
    08:00 +27°C° 0 mm 1 mps 754 mmHg 65%
    09:00 +28°C° 0 mm 1 mps 754 mmHg 60%
    10:00 +29°C° 0 mm 1 mps 754 mmHg 57%
    11:00 +30°C° 0 mm 1 mps 754 mmHg 54%
    12:00 +30°C° 0 mm 2 mps 754 mmHg 51%
    13:00 +31°C° 0 mm 2 mps 754 mmHg 51%
    14:00 +31°C° 0 mm 2 mps 754 mmHg 51%
    15:00 +31°C° 0 mm 2 mps 754 mmHg 50%
    16:00 +31°C° 0 mm 2 mps 754 mmHg 54%
    17:00 +30°C° 0 mm 2 mps 754 mmHg 58%
    18:00 +30°C° 0 mm 1 mps 754 mmHg 62%
    19:00 +28°C° 0 mm 1 mps 755 mmHg 66%
    20:00 +26°C° 0 mm 1 mps 755 mmHg 71%
    21:00 +24°C° 0 mm 1 mps 755 mmHg 75%
    22:00 +22°C° 0 mm 0 mps 755 mmHg 77%
    23:00 +21°C° 0 mm 0 mps 755 mmHg 78%

    25 June, Monday

    Time Temperature Precipitation Wind Pressure Humidity
    00:00 +21°C° 0 mm 0 mps 755 mmHg 80%
    01:00 +20°C° 0 mm 0 mps 756 mmHg 81%
    02:00 +20°C° 0 mm 0 mps 756 mmHg 82%
    03:00 +20°C° 0 mm 0 mps 756 mmHg 83%
    04:00 +21°C° 0 mm 0 mps 756 mmHg 80%
    05:00 +22°C° 0 mm 0 mps 756 mmHg 78%
    06:00 +23°C° 0 mm 0 mps 756 mmHg 75%
    07:00 +24°C° 0.2 mm 0 mps 756 mmHg 71%
    08:00 +26°C° 0.2 mm 0 mps 757 mmHg 66%
    09:00 +27°C° 0.2 mm 0 mps 757 mmHg 61%
    10:00 +28°C° 0.3 mm 0 mps 757 mmHg 59%
    11:00 +30°C° 0.3 mm 1 mps 757 mmHg 56%
    12:00 +31°C° 0.3 mm 1 mps 757 mmHg 53%
    13:00 +31°C° 0 mm 1 mps 757 mmHg 53%
    14:00 +31°C° 0 mm 1 mps 757 mmHg 53%
    15:00 +31°C° 0 mm 2 mps 757 mmHg 53%
    16:00 +31°C° 0.3 mm 1 mps 757 mmHg 56%
    17:00 +30°C° 0.3 mm 1 mps 756 mmHg 60%
    18:00 +30°C° 0.3 mm 1 mps 756 mmHg 63%
    19:00 +28°C° 0.2 mm 1 mps 757 mmHg 67%
    20:00 +26°C° 0.2 mm 1 mps 757 mmHg 71%
    21:00 +25°C° 0.2 mm 1 mps 757 mmHg 75%
    22:00 +24°C° 0 mm 1 mps 757 mmHg 78%
    23:00 +21°C° 0 mm 0 mps 757 mmHg 80%

    26 June, Tuesday

    Time Temperature Precipitation Wind Pressure Humidity
    00:00 +21°C° 0 mm 0 mps 757 mmHg 82%
    01:00 +23°C° 0 mm 1 mps 757 mmHg 83%
    02:00 +22°C° 0 mm 1 mps 757 mmHg 84%
    03:00 +22°C° 0 mm 1 mps 757 mmHg 85%
    04:00 +23°C° 0 mm 1 mps 757 mmHg 83%
    05:00 +24°C° 0 mm 2 mps 757 mmHg 81%
    06:00 +25°C° 0 mm 2 mps 757 mmHg 79%
    07:00 +26°C° 0.1 mm 2 mps 757 mmHg 74%
    08:00 +27°C° 0.1 mm 3 mps 757 mmHg 70%
    09:00 +28°C° 0.1 mm 3 mps 757 mmHg 65%
    10:00 +29°C° 0.1 mm 3 mps 757 mmHg 62%
    11:00 +30°C° 0.1 mm 4 mps 757 mmHg 58%
    12:00 +32°C° 0.1 mm 4 mps 757 mmHg 55%
    13:00 +30°C° 0.5 mm 4 mps 757 mmHg 57%
    14:00 +30°C° 0.5 mm 4 mps 757 mmHg 59%
    15:00 +30°C° 0.5 mm 5 mps 757 mmHg 61%
    16:00 +30°C° 0.1 mm 4 mps 757 mmHg 64%
    17:00 +29°C° 0.1 mm 4 mps 757 mmHg 67%
    18:00 +29°C° 0.1 mm 3 mps 757 mmHg 70%
    19:00 +27°C° 0 mm 3 mps 757 mmHg 74%
    20:00 +26°C° 0 mm 3 mps 757 mmHg 79%
    21:00 +24°C° 0 mm 3 mps 757 mmHg 83%
    22:00 +22°C° 0 mm 3 mps 757 mmHg 85%
    23:00 +22°C° 0 mm 3 mps 757 mmHg 87%
    Show more